FW3048 Weather Reports


time (UTC)temp
F
wind
direction
speed
knots
gust
knots
rain 1hr
in
rain 24hr
in
rain mn
in
humidity
%
barometer
mb
20260507163033 57 137 2.6 6.1 0.00 0.00 0.00 40 1015.7
20260507153033 58 144 1.7 5.2 0.00 0.00 0.00 38 1015.9
20260507143032 59 243 1.7 7.8 0.00 0.00 0.00 40 1016.3
20260507133032 58 99 1.7 9.6 0.00 0.00 0.00 42 1016.9
20260507123031 56 118 1.7 8.7 0.00 0.00 0.00 46 1016.9
20260507113030 53 141 0.9 6.1 0.00 0.00 0.00 51 1017.4
20260507103031 50 123 2.6 6.1 0.00 0.00 0.00 53 1017.6
20260507093031 48 147 1.7 6.1 0.00 0.00 0.00 56 1017.5
20260507073031 44 199 0.9 5.2 0.00 0.00 0.00 62 1017.4
20260507063032 43 240 0.0 4.3 0.00 0.00 0.00 64 1017.2
20260507053032 42 213 0.0 3.5 0.00 0.00 0.00 64 1017.0
20260507043031 41 186 0.0 2.6 0.00 0.00 0.00 65 1017.0
20260507033031 41 237 0.0 3.5 0.00 0.00 0.00 63 1017.3
20260507023032 42 120 0.9 5.2 0.00 0.00 0.00 62 1017.0
20260507013032 42 202 1.7 7.8 0.00 0.00 0.00 62 1017.2
20260507003031 42 192 0.0 6.1 0.00 0.00 0.00 62 1017.2
20260506233031 43 180 0.0 4.3 0.00 0.00 0.00 61 1017.3
20260506193031 47 131 0.9 4.3 0.00 0.00 0.00 56 1016.3
20260506183031 50 144 0.0 2.6 0.00 0.00 0.00 51 1016.1
20260506173031 54 212 0.9 3.5 0.00 0.00 0.00 45 1016.0